User: anonymous   Login
Location: Unspecified
(0.0000°N, 0.0000°E)
Time: 01:56:30
(UTC+02:00)
Language:

Ariane 42L R/B - Orbit

View from above orbital plane
View from above orbital plane
View from above satellite
View from above satellite

Ground track
Ground track

The orbit data is extracted from the following two-line orbital elements,

1 26299U 00020B   14292.56960373  .00004976  00000-0  14870-2 0   839
2 26299 007.5258 047.8641 6056873 046.1722 011.8522 03.93449445179713
Epoch (UTC): 19 October 2014 13:40:13
Eccentricity: 0.6056873
inclination: 7.5258°
perigee height: 305 km
apogee height: 20836 km
right ascension of ascending node: 47.8641°
argument of perigee: 46.1722°
revolutions per day: 3.93449445
mean anomaly at epoch: 11.8522°
orbit number at epoch: 17971

The dashed part of the orbit path shows where the satellite is in the earth's shadow,  

DLR